FW6381 Weather Reports


Display with metric or nautical units.
time (UTC)temp
F
wind
direction
speed
MPH
gust
MPH
rain 1hr
in
rain 24hr
in
rain mn
in
humidity
%
barometer
mb
20260509135503 56 229 8.0 15.0 0.00 0.00 0.00 82 1007.0
20260509135003 56 223 6.0 15.0 0.00 0.00 0.00 82 1007.0
20260509134714 56 207 6.0 15.0 0.00 0.00 0.00 83 1007.1
20260509134003 56 198 6.0 14.0 0.00 0.00 0.00 83 1007.0
20260509133503 56 201 8.0 15.0 0.00 0.00 0.00 83 1007.2
20260509133004 56 205 7.0 19.0 0.00 0.00 0.00 84 1007.0
20260509132505 56 212 7.0 18.0 0.00 0.00 0.00 84 1007.1
20260509132003 56 206 7.0 17.0 0.00 0.00 0.00 84 1007.2
20260509131505 55 200 6.0 13.0 0.00 0.00 0.00 84 1007.1
20260509131003 55 185 6.0 12.0 0.00 0.00 0.00 86 1007.2
20260509130503 54 186 6.0 12.0 0.00 0.00 0.00 86 1007.3
20260509130004 54 184 5.0 12.0 0.00 0.00 0.00 87 1007.3
20260509125505 53 180 6.0 12.0 0.00 0.00 0.00 87 1007.4
20260509125003 53 183 5.0 12.0 0.00 0.00 0.00 87 1007.4
20260509124505 53 169 5.0 10.0 0.00 0.00 0.00 88 1007.4
20260509124003 52 162 5.0 12.0 0.00 0.01 0.00 88 1007.5
20260509123503 52 167 5.0 12.0 0.00 0.01 0.00 88 1007.5
20260509123215 52 166 5.0 13.0 0.00 0.01 0.00 88 1007.6
20260509122503 51 171 5.0 13.0 0.00 0.01 0.00 88 1007.7
20260509122003 51 167 5.0 12.0 0.00 0.01 0.00 88 1007.7
20260509121504 51 169 5.0 12.0 0.00 0.01 0.00 89 1007.8
20260509121004 50 169 5.0 13.0 0.00 0.01 0.00 89 1007.7
20260509120503 50 165 6.0 13.0 0.00 0.01 0.00 89 1007.8
20260509120005 50 174 5.0 10.0 0.00 0.01 0.00 89 1007.9
20260509115504 50 176 5.0 12.0 0.00 0.01 0.00 89 1007.7
20260509115003 49 171 5.0 12.0 0.00 0.01 0.00 90 1007.7
20260509114505 49 164 5.0 12.0 0.00 0.01 0.00 90 1007.8
20260509114003 49 162 5.0 12.0 0.00 0.02 0.00 90 1007.7
20260509113503 48 156 5.0 12.0 0.00 0.02 0.00 90 1007.7
20260509113003 48 149 5.0 10.0 0.00 0.03 0.00 90 1007.7
20260509112503 48 152 4.0 9.0 0.00 0.03 0.00 90 1007.6
20260509112214 47 153 4.0 10.0 0.00 0.05 0.00 90 1007.6
20260509111505 47 150 5.0 10.0 0.00 0.06 0.00 89 1007.8
20260509111003 47 154 5.0 10.0 0.00 0.07 0.00 89 1007.8
20260509110503 46 157 5.0 10.0 0.00 0.08 0.00 89 1007.8
20260509110003 46 157 4.0 10.0 0.00 0.09 0.00 89 1008.0
20260509105503 46 159 4.0 9.0 0.00 0.09 0.00 89 1008.0
20260509105003 46 160 4.0 9.0 0.00 0.09 0.00 89 1007.9
20260509104503 46 161 4.0 10.0 0.00 0.09 0.00 89 1007.9
20260509104003 46 160 5.0 10.0 0.00 0.09 0.00 89 1007.9
20260509103504 46 160 5.0 9.0 0.00 0.09 0.00 89 1007.9
20260509103003 46 162 5.0 9.0 0.00 0.09 0.00 89 1007.8
20260509102503 46 157 4.0 9.0 0.00 0.09 0.00 89 1007.6
20260509102003 45 145 3.0 9.0 0.00 0.09 0.00 89 1007.8
20260509101503 45 137 3.0 6.0 0.00 0.09 0.00 88 1007.9
20260509101214 45 136 3.0 5.0 0.00 0.09 0.00 88 1007.8
20260509100503 45 135 3.0 6.0 0.00 0.10 0.00 88 1007.9
20260509100004 45 133 4.0 9.0 0.00 0.10 0.00 88 1007.7
20260509095503 45 131 4.0 9.0 0.00 0.12 0.00 88 1007.7
20260509095214 45 129 4.0 9.0 0.00 0.12 0.00 87 1007.7
20260509094503 45 145 4.0 9.0 0.00 0.12 0.00 87 1007.8
20260509094004 45 156 3.0 6.0 0.00 0.12 0.00 87 1007.9
20260509093714 45 156 4.0 8.0 0.00 0.12 0.00 87 1007.8
20260509093003 45 157 4.0 8.0 0.00 0.12 0.00 86 1007.8
20260509092505 45 158 4.0 8.0 0.00 0.12 0.00 86 1007.8
20260509092003 45 160 4.0 8.0 0.00 0.12 0.00 84 1007.9
20260509091505 45 161 3.0 8.0 0.00 0.12 0.00 84 1007.8
20260509091003 45 161 4.0 8.0 0.00 0.12 0.00 84 1007.7
20260509090503 45 162 4.0 8.0 0.00 0.12 0.00 83 1007.8
20260509090003 45 163 4.0 8.0 0.00 0.12 0.00 83 1007.8
20260509085503 45 164 4.0 8.0 0.00 0.12 0.00 83 1007.8
20260509085215 45 163 4.0 8.0 0.00 0.12 0.00 82 1007.9
20260509084503 45 159 4.0 9.0 0.00 0.12 0.00 82 1008.0
20260509084003 45 156 4.0 9.0 0.00 0.12 0.00 81 1007.9
20260509083506 45 153 4.0 10.0 0.00 0.12 0.00 80 1007.9
20260509083003 45 152 3.0 10.0 0.00 0.12 0.00 80 1007.9
20260509082503 45 151 3.0 12.0 0.00 0.12 0.00 79 1008.0
20260509082003 45 151 3.0 12.0 0.00 0.12 0.00 78 1008.0
20260509081504 44 152 4.0 9.0 0.00 0.12 0.00 78 1008.0
20260509081213 44 152 4.0 9.0 0.00 0.12 0.00 78 1007.9
20260509080503 44 157 5.0 12.0 0.00 0.12 0.00 77 1008.1
20260509080003 44 157 5.0 12.0 0.00 0.12 0.00 77 1008.1
20260509075503 44 153 5.0 10.0 0.00 0.12 0.00 76 1008.1
20260509075213 44 152 5.0 10.0 0.00 0.12 0.00 76 1008.2
20260509074714 44 155 5.0 10.0 0.00 0.12 0.00 76 1008.2
20260509074003 44 154 4.0 9.0 0.00 0.12 0.00 76 1008.3
20260509073503 44 151 4.0 8.0 0.00 0.12 0.00 75 1008.3
20260509073213 44 151 4.0 8.0 0.00 0.12 0.00 75 1008.3
20260509072714 44 150 4.0 9.0 0.00 0.12 0.00 75 1008.3
20260509072003 44 150 5.0 10.0 0.00 0.12 0.00 75 1008.3
20260509071505 44 152 5.0 10.0 0.00 0.12 0.00 75 1008.5
20260509071213 44 152 5.0 10.0 0.00 0.12 0.00 75 1008.5
20260509070503 44 151 4.0 9.0 0.00 0.12 0.00 74 1008.5
20260509070003 44 155 4.0 10.0 0.00 0.12 0.00 74 1008.5
20260509065503 44 158 4.0 10.0 0.00 0.12 0.00 74 1008.6
20260509065003 44 158 4.0 9.0 0.00 0.12 0.00 74 1008.6
20260509064505 44 159 4.0 9.0 0.00 0.12 0.00 72 1008.7
20260509064003 44 160 5.0 9.0 0.00 0.12 0.00 72 1008.8
20260509063504 44 159 5.0 9.0 0.00 0.12 0.00 72 1008.8
20260509063003 44 152 4.0 9.0 0.00 0.12 0.00 72 1008.9
20260509062505 44 154 4.0 8.0 0.00 0.12 0.00 72 1008.9
20260509062003 44 162 5.0 9.0 0.00 0.12 0.00 71 1009.0
20260509061504 44 163 4.0 9.0 0.00 0.12 0.00 71 1009.0
20260509061003 44 160 4.0 9.0 0.00 0.12 0.00 71 1009.1
20260509060503 44 154 4.0 9.0 0.00 0.12 0.00 71 1009.2
20260509060004 44 155 5.0 9.0 0.00 0.12 0.00 70 1009.3
20260509055503 44 163 6.0 13.0 0.00 0.12 0.00 70 1009.4
20260509055214 44 164 6.0 14.0 0.00 0.12 0.00 70 1009.4
20260509054504 44 162 6.0 14.0 0.00 0.12 0.00 70 1009.5
20260509054003 44 158 5.0 12.0 0.00 0.12 0.00 69 1009.6
20260509053505 44 157 5.0 9.0 0.00 0.12 0.00 69 1009.6
20260509053003 44 157 5.0 9.0 0.00 0.12 0.00 69 1009.6
20260509052505 44 159 5.0 9.0 0.00 0.12 0.00 69 1009.6
20260509052003 44 161 5.0 9.0 0.00 0.12 0.00 68 1009.7
20260509051503 44 164 5.0 9.0 0.00 0.13 0.00 68 1009.7
20260509051003 44 162 6.0 10.0 0.00 0.13 0.00 68 1009.8
20260509050506 44 161 6.0 10.0 0.00 0.13 0.00 68 1009.9
20260509050003 44 162 5.0 10.0 0.00 0.13 0.00 67 1009.9
20260509045713 44 161 5.0 9.0 0.00 0.13 0.00 67 1009.9
20260509045003 45 163 5.0 9.0 0.00 0.13 0.00 67 1010.0
20260509044713 45 163 5.0 9.0 0.00 0.13 0.00 67 1009.9
20260509044005 45 164 5.0 10.0 0.00 0.13 0.00 67 1010.0
20260509043503 45 164 5.0 12.0 0.00 0.13 0.00 66 1010.0
20260509043005 45 159 5.0 10.0 0.00 0.13 0.00 66 1010.1
20260509042504 45 148 5.0 10.0 0.00 0.13 0.00 66 1010.3
20260509042004 45 151 5.0 10.0 0.00 0.13 0.00 65 1010.3
20260509041503 45 159 5.0 10.0 0.00 0.13 0.00 65 1010.3
20260509041003 45 158 5.0 10.0 0.00 0.13 0.00 66 1010.2
20260509040506 45 158 5.0 9.0 0.00 0.13 0.00 66 1010.2
20260509040005 45 161 6.0 10.0 0.00 0.13 0.00 66 1010.2
20260509035503 44 162 5.0 10.0 0.00 0.13 0.13 66 1010.4
20260509035003 44 163 5.0 10.0 0.00 0.13 0.13 67 1010.4
20260509034714 44 162 5.0 9.0 0.00 0.13 0.13 67 1010.5
20260509034005 43 169 4.0 9.0 0.00 0.13 0.13 68 1010.5
20260509033503 43 188 3.0 9.0 0.00 0.13 0.13 68 1010.6
20260509033004 43 218 3.0 6.0 0.00 0.13 0.13 70 1010.6
20260509032504 43 229 3.0 6.0 0.00 0.13 0.13 71 1010.6
20260509032215 43 230 3.0 5.0 0.00 0.13 0.13 71 1010.7
20260509031503 43 232 2.0 5.0 0.00 0.13 0.13 69 1010.8
20260509031005 43 232 1.0 4.0 0.00 0.13 0.13 69 1010.8
20260509030503 43 232 0.0 4.0 0.00 0.13 0.13 70 1010.8
20260509030003 43 0 0.0 0.0 0.00 0.13 0.13 69 1010.9
20260509025505 43 0 0.0 0.0 0.00 0.13 0.13 69 1010.8
20260509025003 43 233 0.0 3.0 0.00 0.13 0.13 68 1010.9
20260509024503 44 233 1.0 3.0 0.00 0.13 0.13 68 1010.8
20260509024213 44 233 1.0 4.0 0.00 0.13 0.13 68 1010.8
20260509023503 44 233 1.0 4.0 0.00 0.13 0.13 66 1010.9
20260509023003 44 233 0.0 3.0 0.00 0.13 0.13 65 1010.9
20260509022505 44 233 0.0 3.0 0.00 0.13 0.13 65 1010.9
20260509022006 44 0 0.0 0.0 0.00 0.13 0.13 66 1010.8
20260509021503 44 233 1.0 4.0 0.00 0.13 0.13 66 1010.8
20260509021003 45 234 1.0 4.0 0.00 0.13 0.13 65 1010.8
20260509020505 45 234 1.0 4.0 0.00 0.13 0.13 65 1010.8
20260509020003 45 234 0.0 3.0 0.00 0.13 0.13 66 1010.8
20260509015714 45 234 0.0 3.0 0.00 0.13 0.13 66 1010.7
20260509015003 46 0 0.0 0.0 0.00 0.14 0.13 65 1010.6
20260509014505 46 234 0.0 1.0 0.00 0.15 0.13 63 1010.6
20260509014214 46 234 0.0 1.0 0.00 0.15 0.13 63 1010.6
20260509013503 47 234 1.0 3.0 0.00 0.15 0.13 63 1010.6
20260509013212 47 234 1.0 3.0 0.00 0.15 0.13 62 1010.5
20260509012504 48 234 1.0 3.0 0.00 0.15 0.13 59 1010.4
20260509012212 48 234 0.0 3.0 0.00 0.16 0.13 58 1010.4
20260509011503 48 0 0.0 0.0 0.00 0.17 0.13 56 1010.5
20260509011003 49 234 1.0 3.0 0.00 0.17 0.13 57 1010.5
20260509010503 49 234 1.0 3.0 0.00 0.18 0.13 54 1010.5
20260509010003 50 234 0.0 3.0 0.00 0.18 0.13 51 1010.4
20260509005503 50 234 0.0 1.0 0.00 0.18 0.13 51 1010.5
20260509005214 50 0 0.0 0.0 0.00 0.18 0.13 52 1010.4
20260509004503 51 234 0.0 3.0 0.00 0.18 0.13 50 1010.4
20260509004003 51 234 0.0 3.0 0.00 0.18 0.13 47 1010.4
20260509003503 52 234 1.0 4.0 0.00 0.18 0.13 45 1010.3
20260509003003 52 234 2.0 4.0 0.00 0.18 0.13 42 1010.4
20260509002503 52 234 2.0 4.0 0.00 0.18 0.13 41 1010.3
20260509002004 52 234 2.0 5.0 0.00 0.18 0.13 41 1010.3
20260509001503 53 234 2.0 5.0 0.00 0.18 0.13 40 1010.3
20260509001214 53 234 2.0 5.0 0.00 0.18 0.13 39 1010.2
20260509000503 53 235 2.0 6.0 0.00 0.18 0.13 36 1010.1
20260509000004 53 236 2.0 6.0 0.00 0.18 0.13 36 1010.1
20260508235503 54 236 2.0 5.0 0.00 0.18 0.13 38 1010.0
20260508235004 54 238 2.0 5.0 0.00 0.18 0.13 35 1010.0
20260508234503 54 240 3.0 9.0 0.00 0.18 0.13 34 1010.0
20260508234004 54 238 4.0 12.0 0.00 0.18 0.13 33 1010.1
20260508233715 54 236 5.0 12.0 0.00 0.18 0.13 32 1010.0
20260508233216 54 241 6.0 12.0 0.00 0.18 0.13 32 1010.0
20260508232503 54 238 5.0 13.0 0.00 0.18 0.13 33 1010.0
20260508232216 55 230 6.0 14.0 0.00 0.18 0.13 32 1010.0
20260508231503 55 228 6.0 14.0 0.00 0.18 0.13 32 1010.0
20260508231213 55 229 6.0 13.0 0.00 0.18 0.13 32 1010.0
20260508230505 55 217 6.0 12.0 0.00 0.18 0.13 34 1010.0
20260508230005 55 206 5.0 12.0 0.00 0.18 0.13 35 1010.0
20260508225503 56 221 6.0 14.0 0.00 0.18 0.13 36 1010.0
20260508225003 56 244 7.0 14.0 0.00 0.18 0.13 36 1010.0
20260508224503 56 252 7.0 14.0 0.00 0.18 0.13 38 1010.1
20260508224213 56 241 7.0 14.0 0.00 0.18 0.13 39 1010.1
20260508223503 56 236 5.0 14.0 0.00 0.18 0.13 38 1010.1
20260508223003 56 234 5.0 13.0 0.00 0.18 0.13 38 1010.2
20260508222505 56 235 4.0 13.0 0.00 0.18 0.13 36 1010.2
20260508222003 56 260 5.0 13.0 0.00 0.18 0.13 36 1010.1
20260508221714 56 266 5.0 13.0 0.00 0.18 0.13 39 1010.1
20260508221213 56 244 6.0 13.0 0.00 0.18 0.13 38 1010.1
20260508220503 56 223 5.0 14.0 0.00 0.18 0.13 39 1010.2
20260508220003 56 232 5.0 14.0 0.00 0.18 0.13 39 1010.2
20260508215503 56 229 5.0 14.0 0.00 0.18 0.13 40 1010.2
20260508215003 56 231 6.0 14.0 0.00 0.18 0.13 38 1010.2
20260508214503 56 225 6.0 14.0 0.00 0.18 0.13 36 1010.2
20260508214003 56 224 5.0 10.0 0.00 0.18 0.13 36 1010.2
20260508213504 56 231 6.0 14.0 0.00 0.18 0.13 39 1010.2
20260508213215 56 232 5.0 14.0 0.00 0.18 0.13 39 1010.2
20260508212714 56 244 7.0 14.0 0.00 0.18 0.13 36 1010.2
20260508212003 57 259 8.0 15.0 0.00 0.18 0.13 38 1010.3
20260508211503 57 273 6.0 15.0 0.00 0.18 0.13 38 1010.2
20260508211003 57 258 6.0 17.0 0.00 0.18 0.13 38 1010.2
20260508210504 57 251 5.0 17.0 0.00 0.18 0.13 42 1010.1
20260508210003 56 231 4.0 17.0 0.00 0.18 0.13 41 1010.2
20260508205503 56 196 4.0 9.0 0.00 0.18 0.13 40 1010.2
20260508205213 56 200 4.0 12.0 0.00 0.18 0.13 41 1010.2
20260508204503 56 221 5.0 13.0 0.00 0.18 0.13 39 1010.2
20260508204003 56 212 6.0 13.0 0.00 0.18 0.13 39 1010.3
20260508203503 56 211 6.0 14.0 0.00 0.18 0.13 41 1010.3
20260508203005 56 208 6.0 14.0 0.00 0.18 0.13 42 1010.4
20260508202503 56 195 7.0 20.0 0.00 0.18 0.13 41 1010.4
20260508202003 56 190 6.0 20.0 0.00 0.18 0.13 43 1010.5
20260508201503 57 204 5.0 17.0 0.00 0.18 0.13 43 1010.5
20260508201003 56 224 6.0 17.0 0.00 0.18 0.13 46 1010.5
20260508200713 56 222 6.0 17.0 0.00 0.18 0.13 43 1010.6
20260508200212 56 208 6.0 18.0 0.00 0.18 0.13 44 1010.6
20260508195503 56 238 6.0 18.0 0.00 0.18 0.13 45 1010.8
20260508195004 56 239 5.0 13.0 0.00 0.18 0.13 47 1010.7
20260508194713 56 239 4.0 12.0 0.00 0.18 0.13 47 1010.7
20260508194005 56 264 4.0 12.0 0.00 0.18 0.13 48 1010.9
20260508193503 56 254 5.0 12.0 0.00 0.18 0.13 46 1011.0
20260508193005 56 244 4.0 12.0 0.00 0.18 0.13 50 1011.1
20260508192504 56 243 4.0 12.0 0.00 0.18 0.13 47 1011.2
20260508192212 56 244 6.0 15.0 0.00 0.18 0.13 51 1011.2
20260508191505 56 249 5.0 15.0 0.00 0.18 0.13 52 1011.3
20260508191214 56 238 6.0 13.0 0.00 0.18 0.13 53 1011.3
20260508190713 56 216 6.0 15.0 0.00 0.18 0.13 53 1011.4
20260508190003 56 199 5.0 18.0 0.00 0.18 0.13 54 1011.5
20260508185504 55 216 6.0 18.0 0.00 0.18 0.13 52 1011.5
20260508185003 56 222 4.0 14.0 0.00 0.18 0.13 55 1011.5
20260508184506 56 180 4.0 14.0 0.00 0.18 0.13 56 1011.5
20260508184005 56 200 5.0 13.0 0.00 0.18 0.13 56 1011.5
20260508183503 55 239 5.0 13.0 0.00 0.18 0.13 56 1011.6
20260508183005 55 236 5.0 13.0 0.00 0.18 0.13 57 1011.7
20260508182503 54 215 6.0 12.0 0.00 0.18 0.13 55 1011.7
20260508182003 55 221 5.0 12.0 0.00 0.18 0.13 55 1011.7
20260508181503 55 230 5.0 15.0 0.00 0.18 0.13 56 1011.5
20260508181216 55 233 4.0 15.0 0.00 0.18 0.13 56 1011.5
20260508180505 55 234 4.0 12.0 0.00 0.18 0.13 56 1011.6
20260508180214 55 233 4.0 12.0 0.00 0.18 0.13 56 1011.7
20260508175503 55 243 4.0 13.0 0.00 0.18 0.13 58 1011.6
20260508175005 55 259 6.0 19.0 0.00 0.18 0.13 59 1011.6
20260508174712 54 256 6.0 19.0 0.00 0.18 0.13 59 1011.7
20260508174004 54 242 6.0 19.0 0.00 0.18 0.13 58 1011.8
20260508173505 54 251 5.0 14.0 0.00 0.18 0.13 58 1011.9
20260508173004 54 257 4.0 10.0 0.00 0.18 0.13 58 1011.9
20260508172504 53 233 4.0 10.0 0.00 0.18 0.13 57 1012.0
20260508172003 53 231 3.0 9.0 0.00 0.18 0.13 58 1012.0
20260508171503 53 239 2.0 9.0 0.00 0.18 0.13 60 1012.0
20260508171004 53 241 4.0 10.0 0.00 0.18 0.13 62 1012.0
20260508170503 53 245 5.0 13.0 0.00 0.18 0.13 60 1012.1
20260508170213 53 252 5.0 13.0 0.00 0.18 0.13 63 1012.0
20260508165503 53 255 4.0 13.0 0.00 0.18 0.13 65 1012.1
20260508165005 52 244 4.0 13.0 0.00 0.18 0.13 63 1012.1
20260508164712 52 246 5.0 13.0 0.00 0.18 0.13 60 1012.1
20260508164003 52 282 4.0 12.0 0.00 0.18 0.13 64 1012.2
20260508163503 52 316 4.0 17.0 0.00 0.18 0.13 63 1012.3
20260508163005 52 318 4.0 17.0 0.00 0.18 0.13 60 1012.4
20260508162503 52 301 4.0 10.0 0.00 0.18 0.13 65 1012.3
20260508162003 52 293 5.0 13.0 0.00 0.18 0.13 67 1012.3
20260508161503 51 317 6.0 13.0 0.00 0.18 0.13 67 1012.5
20260508161003 51 327 4.0 12.0 0.00 0.18 0.13 65 1012.5
20260508160504 51 311 4.0 13.0 0.00 0.18 0.13 67 1012.5
20260508160003 51 310 5.0 13.0 0.00 0.18 0.13 69 1012.5
20260508155714 51 316 5.0 13.0 0.00 0.18 0.13 68 1012.5
20260508155003 50 331 6.0 17.0 0.00 0.18 0.13 70 1012.6
20260508154503 50 333 7.0 17.0 0.00 0.18 0.13 70 1012.5
20260508154003 50 319 5.0 15.0 0.00 0.18 0.13 72 1012.6
20260508153505 49 287 4.0 12.0 0.00 0.18 0.13 74 1012.8
20260508153005 49 271 5.0 13.0 0.00 0.18 0.13 75 1012.7
20260508152503 49 254 6.0 13.0 0.00 0.18 0.13 77 1012.7
20260508152005 48 261 5.0 13.0 0.00 0.18 0.13 78 1012.9
20260508151505 48 286 4.0 10.0 0.00 0.18 0.13 81 1012.9
20260508151003 48 256 4.0 9.0 0.00 0.18 0.13 82 1012.9
20260508150713 47 241 3.0 9.0 0.00 0.18 0.13 82 1012.9
20260508150003 47 231 4.0 9.0 0.00 0.18 0.13 83 1012.9
20260508145503 47 234 4.0 9.0 0.00 0.18 0.13 83 1012.8
20260508145003 47 238 3.0 6.0 0.00 0.18 0.13 84 1012.8
20260508144715 46 241 4.0 6.0 0.00 0.18 0.13 84 1012.9
20260508144003 46 274 4.0 10.0 0.00 0.18 0.13 87 1012.8
20260508143504 46 261 4.0 9.0 0.00 0.18 0.13 87 1012.9
20260508143006 46 224 4.0 9.0 0.00 0.18 0.13 88 1012.8
20260508142503 45 221 3.0 9.0 0.00 0.18 0.13 89 1012.8
20260508142003 45 226 3.0 9.0 0.00 0.18 0.13 91 1012.8
20260508141505 44 234 3.0 9.0 0.00 0.18 0.13 91 1012.7
20260508141004 44 221 3.0 8.0 0.00 0.18 0.13 92 1012.6
20260508140503 44 186 2.0 8.0 0.00 0.18 0.13 92 1012.8
20260508140003 44 140 2.0 5.0 0.00 0.18 0.13 93 1012.8